McCook, NE

5:52 PM CST on January 20, 2018 (GMT -0600)
McCook Municipal

Weather History for KMCK - March, 2015

Change the Weather History Date:

Monday, March 2, 2015

  Actual Average Record
Temperature  
Mean Temperature 35 °F 35 °F  
Max Temperature 41 °F 49 °F 78 °F (1974)
Min Temperature 28 °F 21 °F -6 °F (1980)
Degree Days  
Heating Degree Days 32    
Moisture  
Dew Point 21 °F    
Average Humidity 62    
Maximum Humidity 76    
Minimum Humidity 46    
Precipitation  
Precipitation 0.00 in 0.04 in 0.30 in (1978)
Month to date precipitation 0.00 0.07  
Year to date precipitation 0.34 1.20  
Sea Level Pressure  
Sea Level Pressure 30.10 in    
Wind  
Wind Speed 12 mph (SSE)    
Max Wind Speed 23 mph    
Max Gust Speed 31 mph    
Visibility 9 miles    
Events      
T = Trace of Precipitation, MM = Missing Value Source: NWS Daily Summary

Daily Weather History Graph

Daily Weather History Graph

Search for Another Location

Airport or City:

Trip Planner

Search our weather history database for the weather conditions in past years. The results will help you decide how hot, cold, wet, or windy it might be!

Date:

Astronomy

Mar. 02, 2015 Rise Set
Actual Time 7:14 AM CST 6:34 PM CST
Civil Twilight 6:47 AM CST 7:02 PM CST
Nautical Twilight 6:16 AM CST 7:33 PM CST
Astronomical Twilight 5:44 AM CST 8:05 PM CST
Moon 4:05 PM CST (3/2) 5:19 AM CST (3/2)
Length of Visible Light 12h 14m
Length of Day
11h 20m
Waxing Gibbous, 92% of the Moon is Illuminated
Mar 2
Waxing Gibbous
Mar 5
Full
Mar 13
Last Quarter
Mar 20
New
Mar 27
First Quarter

Hourly Weather History & Observations

Time (CST) Temp. Windchill Dew Point Humidity Pressure Visibility Wind Dir Wind Speed Gust Speed Precip Events Conditions
12:53 AM 32.0 °F 26.4 °F 16.0 °F 52% 30.43 in 10.0 mi SSW 5.8 mph - N/A   Overcast
1:53 AM 32.0 °F 27.5 °F 18.0 °F 56% 30.42 in 10.0 mi South 4.6 mph - N/A   Overcast
2:53 AM 32.0 °F 27.5 °F 21.2 °F 64% 30.34 in 10.0 mi South 4.6 mph - N/A   Overcast
3:53 AM 32.0 °F 25.6 °F 19.9 °F 61% 30.35 in 10.0 mi SSE 6.9 mph - N/A   Overcast
4:53 AM 32.0 °F 25.6 °F 19.9 °F 61% 30.34 in 10.0 mi SSE 6.9 mph - N/A   Overcast
5:53 AM 30.9 °F 19.8 °F 21.9 °F 69% 30.36 in 10.0 mi South 16.1 mph - N/A   Overcast
6:53 AM 30.0 °F 20.0 °F 21.9 °F 72% 30.36 in 10.0 mi SSE 12.7 mph - N/A   Overcast
7:53 AM 28.0 °F 18.6 °F 21.0 °F 75% 30.36 in 9.0 mi SSE 10.4 mph - N/A   Clear
8:53 AM 30.2 °F 21.3 °F 19.4 °F 64% 30.26 in 9.0 mi SSE 10.4 mph - N/A   Overcast
9:53 AM 32.0 °F 20.1 °F 19.0 °F 59% 30.30 in 10.0 mi South 19.6 mph 25.3 mph N/A   Overcast
10:53 AM 34.0 °F 22.4 °F 18.0 °F 52% 30.27 in 10.0 mi South 20.7 mph 26.5 mph N/A   Overcast
11:53 AM 36.0 °F 26.0 °F 18.0 °F 48% 30.23 in 10.0 mi South 17.3 mph 28.8 mph N/A   Overcast
12:53 PM 37.0 °F 27.0 °F 19.9 °F 50% 30.16 in 10.0 mi SSE 18.4 mph 27.6 mph N/A   Overcast
1:53 PM 37.0 °F 25.9 °F 19.9 °F 50% 30.09 in 10.0 mi SSE 23.0 mph 28.8 mph N/A   Overcast
2:53 PM 39.0 °F 28.8 °F 19.9 °F 46% 30.03 in 10.0 mi South 21.9 mph 29.9 mph N/A   Mostly Cloudy
3:53 PM 35.6 °F 25.2 °F 21.2 °F 56% 29.96 in 10.0 mi South 18.4 mph 28.8 mph N/A   Overcast
4:11 PM 36.0 °F 24.4 °F 21.9 °F 57% 29.95 in 9.0 mi South 23.0 mph 27.6 mph N/A   Overcast
4:53 PM 34.0 °F 22.1 °F 23.0 °F 64% 29.99 in 8.0 mi South 21.9 mph 31.1 mph N/A   Overcast
5:53 PM 33.1 °F 22.6 °F 23.0 °F 66% 29.94 in 8.0 mi SSE 16.1 mph 23.0 mph N/A   Overcast
6:53 PM 33.1 °F 23.4 °F 23.0 °F 66% 29.91 in 9.0 mi SSE 13.8 mph - N/A   Overcast
7:53 PM 33.1 °F 23.0 °F 24.1 °F 70% 29.88 in 8.0 mi SSE 15.0 mph 20.7 mph N/A   Overcast
8:53 PM 32.0 °F 22.1 °F 23.0 °F 69% 29.83 in 8.0 mi SSE 13.8 mph - N/A   Overcast
9:53 PM 30.9 °F 21.2 °F 23.0 °F 72% 29.78 in 9.0 mi SE 12.7 mph - N/A   Overcast
10:53 PM 30.9 °F 20.7 °F 23.0 °F 72% 29.73 in 9.0 mi SE 13.8 mph - N/A   Overcast
11:48 PM 30.2 °F 21.3 °F 23.0 °F 75% 29.64 in 9.0 mi SE 10.4 mph - N/A   Overcast
11:53 PM 30.9 °F 21.7 °F 24.1 °F 76% 29.68 in 9.0 mi ESE 11.5 mph - N/A   Overcast